Regional Weather Roundup
Issued by NWS Upton, NY

Current Version | Previous Version | Text Only | Print | Product List | Glossary On
Versions: 1 2 3 4 5 6 7 8 9 10 11 12 13 14 15 16 17 18 19 20 21 22 23 24 25 26 27 28 29 30 31 32 33 34 35 36 37 38 39 40 41 42 43 44 45 46 47 48 49 50
970
ASUS41 KOKX 241904
RWROKX

REGIONAL WEATHER ROUNDUP
NATIONAL WEATHER SERVICE NEW YORK NY
300 PM EDT WED AUG 24 2016

NOTE: "FAIR" INDICATES FEW OR NO CLOUDS BELOW 12,000 FEET WITH NO
SIGNIFICANT WEATHER AND/OR OBSTRUCTIONS TO VISIBILITY.

NYZ071-072-176-178-NJZ106-104-242000-
NEW YORK CITY METRO AREA

CITY           SKY/WX    TMP DP  RH WIND       PRES   REMARKS
Central Park   NOT AVBL
LaGuardia APRT MOSUNNY   89  56  32 VRB7      30.19F
Kennedy INTL   MOSUNNY   80  65  59 S15       30.23F
Newark/Liberty MOSUNNY   88  56  33 W10       30.19F
Bronx Bot Gard   N/A     86  55  35 SW5       30.20F
Wall St Helipt CLEAR     86  61  42 SW8G20    30.22S
Teterboro      SUNNY     87  57  35 W6        30.18F
$$

NYZ177-179-078>081-242000-
LONG ISLAND NEW YORK

CITY           SKY/WX    TMP DP  RH WIND       PRES   REMARKS
Farmingdale    SUNNY     84  57  39 SW15      30.22F
MacArthur/ISP  MOSUNNY   84  57  39 SW13      30.21F
Shirley        SUNNY     82  61  48 S14       30.23F
Riverhead      NOT AVBL
Westhampton    SUNNY     82  58  43 SW10G17   30.24F
Southampton      N/A     79  68  69 SW6       30.20S
Bridgehampton    N/A     82  61  47 N2        30.23S
East Hampton   FAIR      79  61  53 S9        30.22F
Montauk          N/A     79  65  62 S5        30.24F
$$

NYZ052-065-067-242000-
HUDSON VALLEY

CITY           SKY/WX    TMP DP  RH WIND       PRES   REMARKS
White Plains   SUNNY     85  57  38 SE6       30.21F
Newburgh       SUNNY     82  63  51 W9        30.22
Montgomery     SUNNY     84  62  47 S8        30.19F
Poughkeepsie   SUNNY     86  59  39 S6        30.18F
Albany         MOSUNNY   84  59  42 S7        30.17F
$$

NJZ001-105-106-008-010-013-015-019>022-104-242000-
NEW JERSEY

CITY           SKY/WX    TMP DP  RH WIND       PRES   REMARKS
Newark/Liberty MOSUNNY   88  56  33 W10       30.19F
Teterboro      SUNNY     87  57  35 W6        30.18F
Caldwell         N/A     85  60  42 S6        30.21F
Morristown     MOSUNNY   84  63  48 SW8       30.21F
Somerville     MOSUNNY   84  62  47 VRB6      30.20F
Linden         FAIR      87  56  35 W6        30.22F
Sussex         SUNNY     83  62  49 VRB6      30.21F
Abdover          N/A     82  61  48 VRB3      30.23F
Trenton        SUNNY     84  59  42 MISG      30.21F
Millville      SUNNY     82  59  45 S6        30.25F
Atlantic City  PTSUNNY   83  62  49 S12       30.24F
Wrightstown    SUNNY     84  62  47 W10       30.19F
Toms River     MOSUNNY   87  61  41 W9        30.23F
Belmar         SUNNY     83  64  52 VRB7      30.23F
$$

PAZ047>061-062-071-242000-
EASTERN PENNSYLVANIA

CITY           SKY/WX    TMP DP  RH WIND       PRES   REMARKS
Philadelphia   MOSUNNY   85  59  41 SW10      30.23F
Allentown      SUNNY     84  60  44 SW10      30.22F
Scranton       SUNNY     83  61  47 SW8G18    30.20F
$$

CTZ002-004>006-009-010-012-RIZ004-006-007-MAZ004-011-015-242000-
SOUTHERN NEW ENGLAND
 IN CT

CITY           SKY/WX    TMP DP  RH WIND       PRES   REMARKS
Bradley INTL   MOSUNNY   85  58  39 VRB6      30.19F
Hartford       SUNNY     88  59  37 CALM      30.18F
Danbury        SUNNY     82  58  43 SW10      30.22F
Wtrbury/Oxford MOSUNNY   82  57  42 S3        30.26F
Bridgeport     SUNNY     86  54  33 SW9       30.21F
Meriden        SUNNY     87  59  38 S9        30.20F
New Haven      MOSUNNY   83  58  42 VRB6      30.22F
Chester        FAIR      82  55  39 S8        30.23S
Groton         SUNNY     82  60  47 SW8       30.21F
Wilimantic     SUNNY     85  61  44 S7        30.21F

 IN RI

CITY           SKY/WX    TMP DP  RH WIND       PRES   REMARKS
Providence     MOSUNNY   85  61  44 SE12      30.20F
Block Island   SUNNY     79  65  62 SW12      30.24F
Westerly       SUNNY     83  61  47 SW7       30.23F
 IN MA

CITY           SKY/WX    TMP DP  RH WIND       PRES   REMARKS
Boston         MOSUNNY   81  61  50 SE12      30.17F
Worcester      SUNNY     80  55  42 SW12      30.22F
Westfield      SUNNY     86  57  37 S9        30.18F
Provincetown   SUNNY     84  61  45 S9        30.20F
Nantucket      SUNNY     75  68  78 SW13      30.23F
$$

ANZ330-335-338-340-345-350-353-355-242000-
COASTAL MARINE OBSERVATIONS


STATION/POSITION TIME  SKY/WX   TEMP    WIND        PRES    VSBY  WAVE
                                AIR SEA DIR/SP/G                  HT/PER
                 (UTC)          (F)     (DEG/KT/KT) (MB)    (MI)  (FT/S)
NY HARB ENTRANCE 1750            76 79  180/ 10/ 12 1023.7          1/13
20S FIRE ISLAND  1750            75 77  230/  6/  8 1024.1          2/12
GREAT SOUTH BAY  1800            76 80  210/ 12/ 14   N/A
23 SSW MONTAUK P 1750            75 75  220/  8/ 10 1024.6          2/12
15 E BARNEGAT LI 1800               78                N/A           2/13
HUDSON CANYON    NOT AVBL
KINGS POINT      1800            84 77              1023.0
EXECUTION ROCKS  1800            84     170/  2/  4   N/A
CENTRAL LI SOUND 1800            77 76  280/  4/  6   N/A           0
EASTERN LI SOUND 1800            74 70  250/  6/  8   N/A
ROBBINS REEF     1800            81     170/ 13/ 16 1022.5
$$


>>>>>>>>>>>>>>>>>>>>>>>>>>>> KEY <<<<<<<<<<<<<<<<<<<<<<<<<<<
>                                                          <
>     SKY/WX - Sky Condition/Present Weather               <
>     TMP    - Temperature in Fahrenheit                   <
>     DP     - Dew Point in Fahrenheit                     <
>     RH     - Relative Humidity in Percent                <
>     WIND   - Direction (from) and Speed in MPH           <
>     PRES   - Mean Sea Level Pressure (inches of Hg)      <
>     WCI    - Wind Chill Index                            <
>     VSB    - VISIBILITY IN MILES                         <
>     HX     - HEAT INDEX                                  <
>     TC     - TEMPERATURE IN CELSIUS                      <
>     VRB    - VARIABLE WIND DIRECTION                     <
>                                                          <
>>>>>>>>>>>>>>>>>>>>>>>>>>>> KEY <<<<<<<<<<<<<<<<<<<<<<<<<<<




USA.gov is the U.S. government's official web portal to all federal, state and local government web resources and services.